Wind_Speed
49 49 50 49 50 51 51 51 52 52 51 51 50 50 49 48 47 46 46 45 45 44 43 42 42 41 40 39 38 37 37 36 35 35 34 34 34 34 34 34 33 34 34
51 51 51 52 52 53 53 53 53 54 54 54 53 52 52 51 50 49 48 48 47 46 46 45 44 43 42 41 40 39 38 38 37 37 36 36 36 35 36 36 35 35 36
53 53 53 53 54 55 55 55 55 55 56 56 56 55 54 54 52 51 51 50 50 49 48 48 47 45 44 43 42 41 40 40 39 39 38 38 38 37 37 37 37 37 37
54 55 56 56 56 57 58 58 58 58 58 57 57 57 57 57 55 54 54 53 52 51 50 49 49 47 47 46 45 44 42 42 41 41 40 40 39 39 38 38 39 38 38
55 56 58 59 59 60 60 61 61 61 61 60 60 60 59 59 58 57 56 55 54 53 52 51 50 49 48 48 47 46 45 44 43 42 41 41 41 41 40 40 40 39 39
56 57 59 60 61 63 63 63 64 64 63 63 62 62 61 61 60 59 58 57 56 54 53 53 52 51 50 50 50 49 47 46 45 44 44 44 44 42 41 41 41 41 41
57 58 60 61 63 64 65 66 66 66 65 65 64 63 62 62 61 60 59 59 57 56 56 55 55 54 53 52 51 50 49 49 47 45 46 46 44 42 43 42 41 41 42
58 59 60 61 62 63 64 65 66 66 66 66 66 65 64 62 62 61 61 60 59 58 58 57 57 56 54 54 53 51 50 49 48 48 48 47 45 44 44 43 42 42 42
58 58 59 59 60 61 62 62 64 65 65 65 66 65 65 63 61 61 61 60 60 59 59 59 58 57 56 55 55 53 52 51 50 50 48 47 46 46 45 44 44 43 43
56 57 57 57 57 58 59 59 60 61 63 63 63 64 64 64 63 61 60 61 60 59 59 59 59 58 58 57 56 55 53 52 52 51 49 49 47 46 45 44 44 44 44
55 55 56 56 55 55 55 56 57 57 59 59 59 60 61 61 61 61 59 59 60 59 59 59 59 58 58 58 57 56 55 54 53 52 50 49 48 48 47 46 45 45 45
54 55 55 55 55 54 54 53 53 54 55 56 56 57 59 58 59 60 59 58 58 59 59 59 60 58 58 58 57 57 56 55 54 52 50 50 49 49 48 47 46 45 45
53 54 54 53 53 53 53 53 53 53 54 55 56 56 57 58 58 59 58 57 57 57 59 59 59 59 59 58 58 58 56 54 54 53 52 52 51 50 48 48 47 46 46
52 52 52 51 51 52 52 53 53 53 54 55 56 56 57 57 57 58 58 58 57 55 56 57 57 57 57 57 57 57 56 54 54 53 53 53 51 49 49 47 47 47 47
50 49 50 49 49 51 52 53 53 53 54 55 56 57 57 58 58 59 58 57 56 54 54 54 54 55 55 56 55 55 54 54 53 52 52 52 50 50 48 47 47 47 46
48 48 48 49 50 50 52 53 53 53 54 54 55 56 56 57 58 57 57 56 55 54 52 51 53 53 54 54 52 52 53 52 52 51 51 50 49 48 47 47 46 47 46
48 48 49 49 50 51 51 52 52 53 54 55 55 55 55 55 56 56 56 56 54 54 51 50 50 50 51 51 51 51 51 51 50 49 49 49 48 46 47 46 45 46 46
49 48 48 48 49 49 49 50 50 51 52 53 54 55 55 54 54 54 55 55 54 53 51 49 48 48 48 48 49 49 49 49 49 48 47 47 46 45 45 44 44 44 45
47 47 47 47 47 47 47 49 50 49 50 51 52 52 51 53 53 53 53 53 52 51 50 47 45 45 45 46 47 47 47 46 46 45 45 45 44 43 43 44 44 44 43
47 47 46 46 46 46 47 47 47 47 47 48 48 49 48 48 50 51 50 50 49 50 47 46 45 43 41 42 43 43 43 43 42 41 41 41 41 41 42 42 43 43 43
46 46 45 45 44 44 43 43 44 43 44 44 45 45 45 45 46 47 48 47 47 47 45 44 43 41 39 40 40 39 39 41 40 40 40 39 40 40 40 40 42 42 41
45 43 42 41 40 40 40 40 41 41 41 41 42 42 42 41 42 43 43 44 43 43 42 42 41 39 37 38 39 38 36 37 37 37 37 38 38 38 39 40 40 40 38
43 41 40 39 38 38 38 37 38 38 37 37 37 37 37 37 39 40 41 42 41 41 41 40 39 38 36 36 37 35 34 35 35 36 36 37 38 37 37 38 37 37 37
40 40 39 37 36 36 36 35 34 34 34 34 33 33 33 33 34 36 36 38 39 38 37 36 36 36 35 35 34 33 33 34 34 34 35 36 36 35 35 35 35 34 34
38 37 36 35 34 32 32 32 32 30 29 29 30 31 31 31 32 32 33 35 35 34 35 34 34 34 33 33 33 33 33 33 33 32 32 33 33 33 32 32 32 32 33
34 33 33 32 30 29 28 27 27 26 25 25 27 27 28 28 29 29 30 31 32 32 32 32 32 32 32 33 33 33 33 32 32 31 30 31 31 30 28 29 30 31 31
Wind_Direction
266 264 264 264 263 263 263 262 262 262 262 262 262 261 262 262 262 263 263 262 262 262 261 261 261 261 262 263 266 267 268 270 273 275 277 278 279 281 284 286 288 290 292
266 265 263 264 264 264 264 263 263 262 262 262 262 261 261 261 262 262 262 262 261 261 260 260 261 261 262 263 264 266 268 269 272 274 276 277 278 280 282 284 286 289 291
267 265 264 265 264 264 264 263 263 262 261 261 261 261 261 260 260 261 261 262 261 260 260 260 260 260 261 262 263 264 266 268 270 273 275 276 277 279 282 283 285 287 289
269 267 266 265 265 264 264 263 262 262 262 261 260 260 260 260 260 260 260 260 261 260 260 260 260 260 260 261 262 263 265 267 269 271 273 274 276 278 280 283 284 285 288
271 269 266 266 266 265 264 263 262 262 261 261 260 259 259 259 259 259 259 259 259 259 258 259 260 260 260 260 261 261 263 266 268 270 272 273 274 276 279 282 283 284 286
272 270 268 267 267 266 265 264 263 262 261 260 260 259 259 259 258 258 258 258 258 258 258 258 259 259 259 261 261 261 261 263 266 269 271 272 273 275 277 280 283 284 285
273 272 270 269 269 267 266 265 263 262 261 260 259 259 258 258 258 258 257 257 256 257 257 257 258 258 259 260 260 261 261 262 264 267 269 271 272 274 277 278 281 284 285
277 275 273 272 271 269 267 265 263 261 260 260 259 258 257 257 257 257 257 256 256 256 256 256 256 257 257 257 258 259 261 262 263 264 267 268 271 273 276 278 280 282 284
279 278 276 273 271 270 268 265 264 263 260 259 258 257 256 255 255 255 256 256 256 256 256 255 256 256 257 257 257 257 260 261 262 264 265 268 270 272 274 277 278 281 283
280 279 277 275 273 271 269 267 265 263 261 258 257 257 256 256 255 254 255 255 255 255 255 255 255 255 256 256 256 257 258 260 261 262 264 267 269 271 273 276 277 280 282
280 279 277 275 272 271 269 268 265 263 261 258 257 256 255 255 255 256 255 254 254 254 254 254 253 254 255 255 256 256 257 259 260 261 262 265 267 270 271 275 277 278 280
281 280 278 275 271 270 269 268 265 262 260 258 257 256 255 255 255 256 256 255 255 254 253 252 253 253 253 254 255 256 257 257 257 259 260 262 266 268 270 272 275 277 279
281 280 278 275 271 269 268 267 264 261 260 258 258 256 256 256 256 256 256 255 255 254 252 252 252 252 252 253 254 255 255 256 256 257 259 261 264 266 269 271 274 276 279
282 279 277 275 272 269 268 267 265 262 261 259 258 256 256 256 256 255 255 255 254 253 252 251 251 253 252 252 253 253 253 253 255 257 258 260 261 264 266 269 272 275 278
283 280 278 276 273 270 269 267 265 263 261 260 258 257 257 256 255 255 254 253 254 253 251 251 251 251 252 252 251 251 252 252 254 256 257 258 260 263 265 267 271 274 277
284 282 281 278 275 272 270 267 265 263 262 261 259 258 258 257 255 255 253 252 253 253 251 250 249 249 249 250 249 250 250 251 253 255 256 257 259 261 265 266 269 272 276
286 284 283 280 276 274 270 267 265 265 262 260 259 259 258 257 254 253 251 251 251 252 252 249 248 248 249 249 249 250 250 250 251 253 254 255 258 261 264 266 269 272 275
287 285 283 282 279 275 271 268 266 265 263 261 261 259 257 255 254 253 251 250 249 250 251 249 247 248 248 248 249 249 249 249 250 251 252 253 256 260 262 266 269 272 275
289 286 284 283 281 277 273 271 269 266 263 262 261 259 256 254 252 251 250 248 248 248 248 248 247 248 247 247 248 248 249 248 248 250 251 252 254 258 262 265 269 273 275
290 288 286 285 282 278 274 272 270 267 264 263 261 258 254 253 250 249 247 246 246 245 244 245 245 246 246 245 246 246 246 245 245 247 250 251 253 256 261 265 269 272 275
292 290 288 286 283 280 275 271 270 268 264 263 260 254 252 250 248 247 246 244 243 242 242 243 242 244 242 242 242 242 242 241 242 245 248 250 253 257 261 265 269 272 275
294 292 290 287 283 280 275 273 271 267 265 262 258 252 249 246 243 244 243 240 238 238 239 240 240 241 239 238 237 239 239 239 240 244 248 250 254 258 260 264 268 271 272
294 292 290 288 284 280 276 274 272 268 264 260 256 251 246 242 240 240 240 236 234 235 237 238 238 237 236 235 234 235 236 238 239 245 248 251 254 257 260 263 267 270 272
295 293 290 287 284 280 276 273 270 267 263 258 253 247 243 240 239 237 236 231 229 233 235 236 235 232 232 231 232 233 235 238 239 244 248 252 253 255 259 262 266 269 271
296 294 292 288 285 281 275 271 269 267 260 254 248 242 239 237 234 234 232 228 227 229 230 230 230 229 228 228 230 234 235 237 238 243 246 248 250 253 257 261 265 270 274
297 295 293 291 286 281 275 270 267 264 257 251 244 239 236 231 228 227 226 225 224 224 226 226 226 224 225 226 229 233 233 235 239 243 244 245 248 252 256 262 268 272 274
Height
5770 5770 5771 5772 5773 5773 5774 5775 5776 5777 5779 5780 5782 5783 5784 5786 5787 5789 5790 5791 5792 5793 5794 5795 5796 5796 5797 5797 5797 5797 5797 5797 5797 5796 5795 5794 5792 5791 5789 5787 5786 5784 5782
5758 5759 5759 5760 5761 5761 5762 5763 5764 5765 5767 5769 5770 5771 5773 5775 5776 5778 5779 5781 5782 5783 5784 5785 5786 5787 5788 5789 5789 5789 5789 5789 5789 5788 5787 5786 5785 5784 5782 5780 5779 5777 5775
5745 5745 5746 5747 5747 5748 5749 5750 5751 5752 5754 5756 5757 5759 5761 5762 5764 5766 5768 5769 5771 5772 5774 5775 5776 5777 5778 5779 5780 5780 5781 5781 5780 5780 5779 5779 5778 5776 5775 5773 5771 5769 5767
5731 5731 5732 5733 5733 5734 5734 5735 5737 5738 5740 5742 5744 5746 5748 5750 5751 5754 5755 5757 5759 5761 5763 5764 5766 5767 5768 5770 5770 5771 5771 5772 5771 5771 5771 5770 5769 5768 5767 5765 5763 5761 5759
5716 5716 5717 5717 5717 5718 5719 5720 5721 5722 5724 5727 5729 5731 5733 5736 5738 5740 5743 5744 5746 5748 5750 5753 5755 5756 5758 5759 5760 5761 5762 5762 5762 5762 5761 5761 5760 5759 5758 5757 5755 5753 5751
5701 5701 5701 5700 5700 5701 5702 5702 5704 5705 5707 5710 5712 5715 5718 5720 5723 5726 5728 5731 5733 5736 5738 5740 5743 5744 5746 5748 5749 5750 5751 5752 5752 5752 5752 5751 5751 5750 5749 5748 5746 5744 5742
5686 5685 5684 5683 5683 5683 5683 5684 5685 5687 5689 5691 5694 5698 5702 5704 5707 5710 5713 5716 5719 5722 5724 5727 5729 5732 5734 5736 5737 5739 5740 5741 5742 5742 5742 5741 5741 5740 5739 5738 5737 5735 5733
5669 5667 5666 5665 5664 5663 5664 5664 5665 5668 5670 5672 5675 5679 5684 5689 5692 5695 5697 5701 5704 5707 5710 5713 5716 5718 5721 5723 5726 5727 5728 5730 5730 5731 5731 5730 5731 5730 5730 5728 5727 5726 5724
5651 5649 5647 5646 5645 5644 5644 5644 5645 5647 5651 5654 5656 5660 5665 5671 5676 5679 5682 5685 5688 5691 5695 5698 5701 5704 5707 5710 5712 5715 5717 5718 5719 5720 5720 5719 5720 5719 5719 5718 5717 5716 5714
5635 5632 5629 5628 5626 5626 5626 5626 5627 5628 5632 5636 5639 5642 5647 5652 5656 5663 5667 5670 5672 5676 5679 5683 5686 5690 5692 5695 5699 5702 5704 5705 5707 5708 5709 5709 5709 5708 5708 5707 5707 5705 5704
5619 5615 5612 5610 5609 5608 5608 5609 5609 5611 5614 5618 5622 5626 5630 5634 5638 5643 5650 5654 5657 5660 5663 5667 5670 5674 5677 5681 5684 5687 5690 5692 5694 5695 5696 5697 5697 5697 5697 5696 5696 5695 5694
5603 5599 5595 5593 5592 5592 5592 5593 5593 5596 5598 5602 5606 5610 5614 5618 5622 5626 5631 5637 5641 5645 5648 5650 5654 5658 5662 5665 5669 5673 5676 5678 5681 5682 5684 5685 5686 5686 5686 5685 5685 5684 5683
5587 5583 5579 5577 5576 5576 5576 5577 5579 5581 5583 5587 5591 5595 5598 5602 5606 5609 5614 5619 5624 5628 5632 5635 5638 5642 5646 5650 5654 5658 5661 5664 5667 5669 5671 5673 5674 5674 5675 5674 5673 5673 5672
5571 5567 5564 5562 5561 5561 5562 5562 5564 5567 5569 5572 5575 5579 5582 5586 5589 5592 5596 5601 5606 5612 5617 5621 5624 5627 5631 5635 5639 5642 5646 5650 5653 5656 5658 5660 5661 5662 5663 5663 5663 5662 5661
5555 5552 5550 5548 5547 5547 5547 5548 5549 5552 5554 5556 5560 5563 5566 5569 5573 5576 5580 5584 5589 5594 5602 5607 5610 5613 5616 5620 5623 5627 5631 5636 5639 5642 5644 5646 5648 5650 5651 5652 5651 5651 5649
5541 5538 5536 5534 5533 5533 5533 5533 5535 5537 5539 5542 5544 5547 5550 5553 5556 5560 5564 5569 5573 5578 5585 5592 5595 5598 5601 5605 5609 5613 5617 5622 5626 5629 5631 5634 5636 5638 5638 5640 5640 5639 5638
5527 5524 5522 5520 5519 5518 5518 5518 5520 5522 5524 5526 5528 5531 5535 5537 5541 5544 5548 5554 5558 5563 5569 5577 5580 5584 5587 5591 5596 5600 5604 5608 5612 5616 5619 5621 5624 5625 5627 5628 5628 5627 5627
5514 5511 5508 5505 5504 5503 5503 5503 5504 5506 5507 5509 5512 5515 5518 5521 5525 5529 5533 5539 5544 5549 5554 5561 5567 5570 5574 5578 5582 5586 5590 5595 5600 5603 5606 5610 5612 5614 5615 5616 5616 5616 5616
5502 5498 5495 5492 5490 5489 5489 5488 5489 5490 5492 5493 5496 5498 5502 5505 5509 5514 5518 5524 5529 5535 5540 5546 5553 5557 5561 5565 5569 5573 5578 5583 5588 5592 5595 5598 5601 5603 5604 5605 5606 5605 5605
5490 5486 5483 5480 5478 5476 5475 5474 5474 5475 5477 5478 5480 5483 5486 5490 5495 5499 5504 5510 5515 5521 5527 5533 5539 5545 5550 5554 5557 5562 5567 5572 5577 5581 5584 5588 5590 5592 5594 5595 5595 5595 5594
5479 5474 5471 5468 5465 5463 5462 5461 5461 5461 5462 5464 5466 5469 5472 5476 5481 5485 5491 5497 5503 5509 5515 5521 5527 5533 5539 5543 5548 5553 5557 5562 5567 5571 5574 5578 5580 5582 5583 5584 5584 5584 5584
5468 5463 5459 5456 5453 5451 5450 5449 5448 5449 5450 5451 5454 5456 5459 5463 5468 5473 5479 5485 5492 5498 5504 5510 5517 5523 5529 5534 5538 5543 5548 5552 5557 5562 5564 5567 5570 5571 5573 5574 5575 5574 5574
5457 5453 5449 5445 5443 5441 5439 5438 5437 5437 5438 5440 5442 5445 5448 5452 5456 5462 5468 5474 5481 5487 5494 5500 5507 5513 5519 5525 5529 5534 5538 5543 5548 5552 5555 5558 5560 5562 5564 5565 5565 5565 5564
5446 5442 5439 5435 5433 5431 5429 5428 5427 5427 5428 5430 5432 5435 5438 5443 5447 5452 5458 5465 5472 5479 5485 5491 5497 5504 5510 5515 5520 5525 5529 5534 5539 5542 5545 5548 5550 5552 5555 5556 5556 5555 5554
5436 5432 5428 5426 5423 5421 5419 5418 5417 5417 5419 5421 5423 5427 5430 5434 5439 5444 5450 5457 5464 5471 5477 5483 5489 5495 5501 5507 5512 5517 5521 5526 5530 5534 5537 5540 5542 5544 5546 5547 5547 5546 5546
5427 5424 5420 5417 5414 5413 5411 5410 5409 5409 5411 5413 5416 5419 5423 5428 5433 5437 5443 5450 5457 5464 5470 5476 5481 5487 5493 5499 5505 5510 5515 5519 5523 5526 5529 5532 5534 5536 5537 5538 5538 5538 5537